Hallock, MN

3:11 PM CDT on September 19, 2017 (GMT -0500)
Hallock Municipal

Weather History for KHCO - October, 2012

Change the Weather History Date:

Saturday, October 13, 2012

  Actual Average Record
Temperature  
Mean Temperature 44 °F -  
Max Temperature 55 °F 52 °F 84 °F (1934)
Min Temperature 33 °F 31 °F 11 °F (1979)
Degree Days  
Heating Degree Days 21    
Moisture  
Dew Point 30 °F    
Average Humidity 60    
Maximum Humidity 87    
Minimum Humidity 36    
Precipitation  
Precipitation 0.00 in - - ()
Sea Level Pressure  
Sea Level Pressure 29.71 in    
Wind  
Wind Speed 13 mph (NW)    
Max Wind Speed 16 mph    
Max Gust Speed 21 mph    
Visibility 10 miles    
Events      
Averages and records for this station are not official NWS values.
T = Trace of Precipitation, MM = Missing Value Source: NWS Daily Summary

Daily Weather History Graph

Daily Weather History Graph

Search for Another Location

Airport or City:

Trip Planner

Search our weather history database for the weather conditions in past years. The results will help you decide how hot, cold, wet, or windy it might be!

Date:

Astronomy

Oct. 13, 2012 Rise Set
Actual Time 7:45 AM CDT 6:41 PM CDT
Civil Twilight 7:14 AM CDT 7:12 PM CDT
Nautical Twilight 6:37 AM CDT 7:49 PM CDT
Astronomical Twilight 6:00 AM CDT 8:25 PM CDT
Moon 5:29 AM CDT (10/13) 5:30 PM CDT (10/13)
Length of Visible Light 11h 58m
Length of Day
10h 55m
Waning Crescent, 5% of the Moon is Illuminated
Oct 13
Waning Crescent
Oct 15
New
Oct 21
First Quarter
Oct 29
Full
Nov 6
Last Quarter

Hourly Weather History & Observations

Time (CDT) Temp. Windchill Dew Point Humidity Pressure Visibility Wind Dir Wind Speed Gust Speed Precip Events Conditions
12:14 AM 39.2 °F 30.8 °F 24.8 °F 56% 29.78 in 10.0 mi SSE 15.0 mph - N/A   Clear
12:54 AM 37.4 °F 29.3 °F 24.8 °F 60% 29.77 in 10.0 mi SE 12.7 mph - N/A   Clear
1:14 AM 37.4 °F 29.3 °F 24.8 °F 60% 29.76 in 10.0 mi SSE 12.7 mph - N/A   Clear
1:34 AM 37.4 °F 28.2 °F 26.6 °F 65% 29.74 in 10.0 mi SSE 16.1 mph - N/A   Clear
1:54 AM 37.4 °F 28.2 °F 26.6 °F 65% 29.72 in 10.0 mi SSE 16.1 mph - N/A   Clear
2:14 AM 37.4 °F 28.2 °F 24.8 °F 60% 29.71 in 10.0 mi SSE 16.1 mph - N/A   Clear
2:34 AM 37.4 °F 28.5 °F 26.6 °F 65% 29.70 in 10.0 mi SSE 15.0 mph - N/A   Clear
2:54 AM 37.4 °F 28.9 °F 26.6 °F 65% 29.70 in 10.0 mi SSE 13.8 mph - N/A   Clear
3:14 AM 37.4 °F 28.9 °F 26.6 °F 65% 29.68 in 10.0 mi SSE 13.8 mph - N/A   Clear
3:34 AM 37.4 °F 28.2 °F 26.6 °F 65% 29.67 in 10.0 mi SSE 16.1 mph - N/A   Clear
3:54 AM 37.4 °F 28.2 °F 26.6 °F 65% 29.67 in 10.0 mi SSE 16.1 mph - N/A   Clear
4:14 AM 37.4 °F 29.3 °F 26.6 °F 65% 29.66 in 10.0 mi SSE 12.7 mph - N/A   Clear
4:34 AM 37.4 °F 28.2 °F 26.6 °F 65% 29.65 in 10.0 mi SSE 16.1 mph - N/A   Clear
4:54 AM 37.4 °F 28.5 °F 26.6 °F 65% 29.65 in 10.0 mi SSE 15.0 mph - N/A   Clear
5:14 AM 37.4 °F 28.2 °F 26.6 °F 65% 29.64 in 10.0 mi SSE 16.1 mph - N/A   Clear
5:35 AM 37.4 °F 30.3 °F 26.6 °F 65% 29.65 in 10.0 mi SSE 10.4 mph - N/A   Clear
5:54 AM 35.6 °F 27.5 °F 26.6 °F 70% 29.64 in 10.0 mi SSE 11.5 mph - N/A   Clear
6:14 AM 35.6 °F 29.2 °F 26.6 °F 70% 29.65 in 10.0 mi SSE 8.1 mph - N/A   Clear
6:34 AM 35.6 °F 29.9 °F 26.6 °F 70% 29.64 in 10.0 mi SSE 6.9 mph - N/A   Clear
6:54 AM 35.6 °F 28.6 °F 28.4 °F 75% 29.65 in 10.0 mi SSE 9.2 mph - N/A   Clear
7:14 AM 35.6 °F 27.5 °F 28.4 °F 75% 29.64 in 10.0 mi SSE 11.5 mph - N/A   Clear
7:34 AM 33.8 °F 27.0 °F 28.4 °F 81% 29.64 in 10.0 mi SSE 8.1 mph - N/A   Clear
7:54 AM 35.6 °F 28.6 °F 30.2 °F 81% 29.65 in 10.0 mi South 9.2 mph - N/A   Clear
8:14 AM 35.6 °F 28.0 °F 32.0 °F 87% 29.65 in 10.0 mi South 10.4 mph - N/A   Clear
8:54 AM 37.4 °F 29.8 °F 33.8 °F 87% 29.65 in 10.0 mi SSW 11.5 mph - N/A   Clear
9:34 AM 39.2 °F 33.0 °F 33.8 °F 81% 29.66 in 10.0 mi WSW 9.2 mph - N/A   Clear
9:54 AM 42.8 °F 38.0 °F 35.6 °F 76% 29.66 in 10.0 mi West 8.1 mph - N/A   Clear
10:14 AM 44.6 °F 39.7 °F 35.6 °F 71% 29.66 in 10.0 mi West 9.2 mph - N/A   Clear
10:34 AM 44.6 °F 40.2 °F 35.6 °F 71% 29.67 in 10.0 mi West 8.1 mph - N/A   Clear
10:54 AM 44.6 °F 40.2 °F 33.8 °F 66% 29.66 in 10.0 mi WNW 8.1 mph - N/A   Clear
11:14 AM 46.4 °F 42.9 °F 33.8 °F 62% 29.67 in 10.0 mi NW 6.9 mph - N/A   Clear
11:34 AM 48.2 °F - 33.8 °F 58% 29.67 in 10.0 mi NW 6.9 mph - N/A   Clear
11:54 AM 48.2 °F - 33.8 °F 58% 29.67 in 10.0 mi NW 6.9 mph - N/A   Clear
12:14 PM 50.0 °F - 33.8 °F 54% 29.67 in 10.0 mi North 9.2 mph - N/A   Clear
12:34 PM 51.8 °F - 33.8 °F 50% 29.67 in 10.0 mi NNW 9.2 mph - N/A   Clear
1:14 PM 51.8 °F - 33.8 °F 50% 29.68 in 10.0 mi North 11.5 mph - N/A   Clear
1:34 PM 53.6 °F - 33.8 °F 47% 29.68 in 10.0 mi NNW 12.7 mph - N/A   Clear
1:54 PM 53.6 °F - 33.8 °F 47% 29.68 in 10.0 mi NNW 12.7 mph - N/A   Clear
2:14 PM 53.6 °F - 33.8 °F 47% 29.68 in 10.0 mi North 13.8 mph 18.4 mph N/A   Clear
2:34 PM 53.6 °F - 32.0 °F 44% 29.69 in 10.0 mi NNW 13.8 mph - N/A   Clear
2:54 PM 53.6 °F - 30.2 °F 41% 29.69 in 10.0 mi NNW 15.0 mph 18.4 mph N/A   Clear
3:34 PM 55.4 °F - 30.2 °F 38% 29.70 in 10.0 mi North 9.2 mph 20.7 mph N/A   Clear
3:54 PM 55.4 °F - 30.2 °F 38% 29.71 in 4.0 mi NNW 12.7 mph - N/A   Haze
4:14 PM 55.4 °F - 30.2 °F 38% 29.71 in 10.0 mi North 13.8 mph 19.6 mph N/A   Clear
4:34 PM 55.4 °F - 30.2 °F 38% 29.72 in 10.0 mi North 13.8 mph - N/A   Clear
4:54 PM 55.4 °F - 30.2 °F 38% 29.72 in 10.0 mi NNW 15.0 mph - N/A   Clear
5:14 PM 55.4 °F - 28.4 °F 36% 29.73 in 10.0 mi North 13.8 mph - N/A   Clear
5:34 PM 53.6 °F - 28.4 °F 38% 29.74 in 10.0 mi North 12.7 mph - N/A   Clear
5:54 PM 53.6 °F - 28.4 °F 38% 29.75 in 10.0 mi NNW 11.5 mph 17.3 mph N/A   Clear
6:14 PM 51.8 °F - 28.4 °F 41% 29.76 in 10.0 mi NNW 12.7 mph - N/A   Clear
6:34 PM 51.8 °F - 28.4 °F 41% 29.77 in 10.0 mi North 11.5 mph - N/A   Clear
7:14 PM 48.2 °F - 28.4 °F 46% 29.78 in 10.0 mi North 13.8 mph - N/A   Clear
7:33 PM 48.2 °F - 26.6 °F 43% 29.79 in 10.0 mi North 15.0 mph - N/A   Clear
7:54 PM 46.4 °F 41.5 °F 28.4 °F 50% 29.80 in 10.0 mi North 10.4 mph - N/A   Clear
8:14 PM 44.6 °F 39.2 °F 28.4 °F 53% 29.81 in 10.0 mi North 10.4 mph - N/A   Clear
9:14 PM 41.0 °F 35.2 °F 30.2 °F 65% 29.84 in 10.0 mi NNW 9.2 mph - N/A   Clear
9:34 PM 42.8 °F 38.0 °F 33.8 °F 70% 29.84 in 10.0 mi NNW 8.1 mph - N/A   Clear
9:54 PM 41.0 °F 34.3 °F 35.6 °F 81% 29.85 in 10.0 mi NNW 11.5 mph - N/A   Clear
10:14 PM 41.0 °F 34.3 °F 35.6 °F 81% 29.85 in 10.0 mi North 11.5 mph - N/A   Clear
11:14 PM 39.2 °F 32.5 °F 35.6 °F 87% 29.87 in 10.0 mi NNW 10.4 mph - N/A   Clear
11:34 PM 39.2 °F 33.0 °F 35.6 °F 87% 29.88 in 10.0 mi NNW 9.2 mph - N/A   Clear